Location: Équennes
(49.7375°N, 1.9622°E)
Time: 18:38:41
(UTC+00:00)

Cosmos 2278 - Pass Details

Date: 03 October 2023
Orbit: 838 x 853 km, 71.1° (Epoch: 08 December)

Event Time Altitude Azimuth Distance (km) Brightness Sun altitude
Rises 00:04:50 0° 333° (NNW) 3,429 7.4 -43.8°
Reaches altitude 10° 00:07:26 10° 340° (NNW) 2,491 6.6 -43.7°
Enters shadow 00:08:17 14° 344° (NNW) 2,200 6.3 -43.7°
